Regional Weather Roundup
Issued by NWS

Home | Current Version | Previous Version | Graphics & Text | Print | Product List | Glossary On
Versions: 1 2 3 4 5 6 7 8 9 10 11 12 13 14 15 16 17 18 19 20 21 22 23 24 25 26 27 28 29 30 31 32 33 34 35 36 37 38 39 40 41 42 43 44 45 46 47 48 49 50
000
ASUS45 KBOI 282110
RWRID
WEATHER ROUNDUP FOR IDAHO
NATIONAL WEATHER SERVICE BOISE ID
300 PM MDT THU AUG 28 2014

NOTE: "FAIR" INDICATES FEW OR NO CLOUDS BELOW 12000 FEET
WITH NO SIGNIFICANT WEATHER AND/OR OBSTRUCTIONS TO VISIBILITY

IDZ012-014-282200-
SOUTHWEST IDAHO


CITY           SKY/WX    TMP DP  RH WIND       PRES   REMARKS
BOISE          FAIR      87  42  20 N10       30.03F
CALDWELL       FAIR      86  46  25 N7        30.03F
MOUNTAIN HOME  FAIR      92  38  15 NW9       30.01F
$$

IDZ016-017-282200-
SOUTHCENTRAL IDAHO


CITY           SKY/WX    TMP DP  RH WIND       PRES   REMARKS
BURLEY         FAIR      84  46  26 W8        30.10F
JEROME         FAIR      86  41  20 S6        30.09F
TWIN FALLS     FAIR      89  39  17 E3        30.09F
$$

IDZ019>023-282200-
SOUTHEAST IDAHO


CITY           SKY/WX    TMP DP  RH WIND       PRES   REMARKS
IDAHO FALLS    MOSUNNY   82  47  29 SW10      30.14F
POCATELLO      MOSUNNY   86  41  20 SW14G21   30.13F
REXBURG        SUNNY     78  49  35 SW12      30.14F
$$

IDZ006-010-011-018-031-032-282200-
CENTRAL IDAHO MOUNTAINS


CITY           SKY/WX    TMP DP  RH WIND       PRES   REMARKS
MCCALL         FAIR      79  37  22 VRB6G16   30.12F
HAILEY         MOSUNNY   79  46  31 SE14      30.16F
STANLEY          N/A     78  34  20 MISG      30.22F
SALMON         FAIR      79  45  29 NW6       30.00F
CHALLIS        FAIR      83  40  21 E5        30.07F
$$

IDZ002-004-006-007-026-282200-
NORTHERN IDAHO


CITY           SKY/WX    TMP DP  RH WIND       PRES   REMARKS
LEWISTON       FAIR      90  48  23 W10       29.95F
LOWELL           N/A     91  46  21 SE5       29.92F
COEUR D`ALENE  FAIR      81  48  32 W13G21    29.98S
MULLAN PASS    FAIR      66  43  43 VRB7      30.16S
$$


USA.gov is the U.S. government's official web portal to all federal, state and local government web resources and services.